DW9004 Weather Reports


Display with metric or nautical units.
time (UTC)temp
F
wind
direction
speed
MPH
gust
MPH
rain 1hr
in
rain 24hr
in
rain mn
in
humidity
%
barometer
mb
20260903170046 59 203 7.0 18.0 0.00 0.00 0.00 72 1006.7
20260903164545 58 217 7.0 15.0 0.00 0.00 0.00 77 1006.7
20260903163037 57 228 7.0 15.0 0.00 0.00 0.00 78 1006.6
20260903161534 57 230 6.0 14.0 0.00 0.00 0.00 80 1006.7
20260903160052 55 245 7.0 15.0 0.00 0.00 0.00 82 1006.7
20260903154524 55 256 8.0 16.0 0.00 0.00 0.00 82 1006.5
20260903153022 55 231 7.0 18.0 0.00 0.00 0.00 83 1006.6
20260903151505 54 150 9.0 20.0 0.00 0.00 0.00 81 1006.6
20260903150111 54 207 10.0 22.0 0.00 0.00 0.00 81 1006.5
20260903144602 54 226 11.0 21.0 0.00 0.00 0.00 79 1006.4
20260903143051 54 227 9.0 21.0 0.00 0.00 0.00 78 1006.4
20260903141547 54 152 9.0 19.0 0.00 0.00 0.00 79 1006.3
20260903140042 0 0.0 0.0 0.00 0.00 0.00 1006.2
20260903134543 0 0.0 0.0 0.00 0.00 0.00 1006.1
20260903133034 0 0.0 0.0 0.00 0.00 0.00 1006.0
20260903131512 0 0.0 0.0 0.00 0.00 0.00 1005.9
20260903130008 0 0.0 0.0 0.00 0.00 0.00 1005.8
20260903124557 0 0.0 0.0 0.00 0.00 0.00 1005.8
20260903123048 0 0.0 0.0 0.00 0.00 0.00 1005.7
20260903121543 0 0.0 0.0 0.00 0.00 0.00 1005.8
20260903120054 0 0.0 0.0 0.00 0.00 0.00 1005.7
20260903114535 0 0.0 0.0 0.00 0.00 0.00 1005.7
20260903113037 53 227 7.0 12.0 0.00 0.00 0.00 82 1005.6
20260903111532 54 231 7.0 14.0 0.00 0.00 0.00 79 1005.5
20260903110028 54 252 8.0 17.0 0.00 0.00 0.00 80 1005.4
20260903104511 55 140 8.0 18.0 0.00 0.00 0.00 81 1004.9
20260903103013 55 193 9.0 18.0 0.00 0.00 0.00 79 1004.7
20260903101507 55 235 10.0 17.0 0.00 0.00 0.00 79 1004.6
20260903100007 56 178 8.0 18.0 0.00 0.00 0.00 80 1004.6
20260903094502 56 203 7.0 18.0 0.00 0.00 0.00 82 1004.4
20260903093001 56 171 7.0 16.0 0.00 0.00 0.00 85 1004.4
20260903091602 56 221 10.0 18.0 0.00 0.00 0.00 85 1004.4
20260903084539 56 180 9.0 21.0 0.00 0.00 0.00 87 1004.3
20260903083037 57 236 10.0 21.0 0.00 0.00 0.00 87 1004.2
20260903081523 57 207 9.0 19.0 0.00 0.00 0.00 87 1003.9
20260903080028 57 158 7.0 16.0 0.00 0.00 0.00 87 1003.8
20260903074517 57 167 8.0 18.0 0.00 0.00 0.00 88 1003.6
20260903073027 57 224 9.0 16.0 0.00 0.00 0.00 88 1003.7
20260903071528 57 237 8.0 17.0 0.00 0.00 0.00 88 1003.7
20260903070011 57 228 7.0 20.0 0.00 0.00 0.00 88 1003.4
20260903064511 58 179 8.0 20.0 0.00 0.00 0.00 87 1003.6
20260903061559 58 254 9.0 21.0 0.00 0.00 0.00 86 1003.5
20260903060053 58 155 16.0 29.0 0.00 0.00 0.00 84 1003.2
20260903054554 59 165 13.0 24.0 0.00 0.00 0.00 82 1003.2
20260903053051 59 228 14.0 25.0 0.00 0.00 0.00 81 1003.6
20260903051546 60 165 12.0 28.0 0.00 0.00 0.00 81 1003.8
20260903050044 60 161 12.0 31.0 0.00 0.00 0.00 80 1003.5
20260903044541 60 165 14.0 24.0 0.00 0.00 0.00 79 1003.3
20260903043040 60 207 11.0 28.0 0.00 0.00 0.00 79 1003.3
20260903041536 60 230 11.0 26.0 0.00 0.00 0.00 79 1003.3
20260903040026 61 166 8.0 25.0 0.00 0.00 0.00 78 1003.2
20260903034527 61 168 12.0 24.0 0.00 0.00 0.00 76 1003.2
20260903033036 62 247 11.0 26.0 0.00 0.00 0.00 74 1003.0
20260903031519 62 168 13.0 28.0 0.00 0.00 0.00 74 1003.0
20260903030019 61 172 10.0 24.0 0.00 0.00 0.00 75 1002.8
20260903024513 61 173 15.0 24.0 0.00 0.00 0.00 74 1002.8
20260903023011 61 173 9.0 21.0 0.00 0.00 0.00 74 1002.9
20260903021507 59 241 0.0 0.0 0.00 0.00 0.00 76 1002.9
20260903020005 60 268 0.0 2.0 0.00 0.00 0.00 74 1002.8
20260903014501 62 59 0.0 4.0 0.00 0.00 0.00 72 1002.8
20260903013059 62 5 0.0 2.0 0.00 0.00 0.00 69 1002.9
20260903011501 63 85 0.0 6.0 0.00 0.00 0.00 68 1002.7
20260903004600 64 243 0.0 3.0 0.00 0.00 0.00 65 1002.8
20260903003059 64 137 0.0 5.0 0.00 0.00 0.00 65 1002.9
20260903000051 63 239 7.0 19.0 0.00 0.00 0.00 67 1002.8
20260902234557 65 241 8.0 18.0 0.00 0.00 0.00 59 1002.9
20260902233044 66 272 12.0 19.0 0.00 0.00 0.00 52 1002.7
20260902231540 67 269 11.0 22.0 0.00 0.00 0.00 50 1002.8
20260902230045 68 225 12.0 26.0 0.00 0.00 0.00 49 1002.7
20260902224522 67 268 6.0 13.0 0.00 0.00 0.00 55 1002.8
20260902223019 67 263 8.0 22.0 0.00 0.00 0.00 55 1002.6
20260902221521 67 228 18.0 35.0 0.00 0.00 0.00 54 1002.6
20260902220010 72 242 7.0 19.0 0.00 0.00 0.00 43 1001.8
20260902214505 73 157 7.0 16.0 0.00 0.00 0.00 41 1001.5
20260902213000 73 244 7.0 18.0 0.00 0.00 0.00 40 1001.5
20260902211601 74 131 10.0 19.0 0.00 0.00 0.00 39 1001.5
20260902210053 76 161 8.0 15.0 0.00 0.00 0.00 37 1001.2
20260902204540 75 166 10.0 16.0 0.00 0.00 0.00 37 1001.3
20260902203041 76 168 5.0 11.0 0.00 0.00 0.00 37 1001.5
20260902201527 75 168 4.0 13.0 0.00 0.00 0.00 38 1001.5
20260902200023 74 204 9.0 17.0 0.00 0.00 0.00 39 1001.8
20260902194518 74 238 4.0 16.0 0.00 0.00 0.00 40 1002.0
20260902193013 73 239 3.0 17.0 0.00 0.00 0.00 42 1002.3
20260902191511 73 253 7.0 14.0 0.00 0.00 0.00 42 1002.6
20260902190004 72 242 5.0 13.0 0.00 0.00 0.00 44 1002.7
20260902184604 71 176 11.0 19.0 0.00 0.00 0.00 44 1002.7
20260902183038 70 242 6.0 17.0 0.00 0.00 0.00 46 1002.9
20260902181536 70 156 11.0 18.0 0.00 0.00 0.00 45 1002.9
20260902174515 70 214 9.0 22.0 0.00 0.00 0.00 46 1003.1
20260902173009 69 225 8.0 19.0 0.00 0.00 0.00 47 1003.1